This is the latest recevied weather packets stored in our database for station/object K0FJ-1. If no packets are shown the sender has not sent any weather packets the latest 10 day(s).
| Time | Temp. | Humidity | Pressure | Rain* | Wind** | Luminosity | Snow |
|---|---|---|---|---|---|---|---|
| 1788248703 | 22.78° C | 73% | 1018.5 hPa | 0 mm | - | - | - |
| 1788248403 | 22.22° C | 79% | 1018.6 hPa | 0 mm | - | - | - |
| 1788248103 | 22.22° C | 81% | 1018.4 hPa | 0 mm | - | - | - |
| 1788247803 | 22.22° C | 81% | 1018.4 hPa | 0 mm | - | - | - |
| 1788247503 | 22.22° C | 81% | 1018 hPa | 0 mm | - | - | - |
| 1788247203 | 22.22° C | 81% | 1017.8 hPa | 0 mm | - | - | - |
| 1788246903 | 22.22° C | 80% | 1017.8 hPa | 0 mm | - | - | - |
| 1788246603 | 22.22° C | 79% | 1017.9 hPa | 0 mm | - | - | - |
| 1788246303 | 22.78° C | 78% | 1017.8 hPa | 0 mm | - | - | - |
| 1788246003 | 22.78° C | 78% | 1017.9 hPa | 0 mm | - | - | - |
| 1788245703 | 22.78° C | 77% | 1018.2 hPa | 0 mm | - | - | - |
| 1788245403 | 22.78° C | 76% | 1018.2 hPa | 0 mm | - | - | - |
| 1788245103 | 23.33° C | 76% | 1018.1 hPa | 0 mm | - | - | - |
| 1788244803 | 23.33° C | 74% | 1018.1 hPa | 0 mm | - | - | - |
| 1788244503 | 23.33° C | 74% | 1017.9 hPa | 0 mm | - | - | - |
| 1788244223 | 23.33° C | 73% | 1018.1 hPa | 0 mm | - | - | - |
| 1788243903 | 23.89° C | 72% | 1017.6 hPa | 0 mm | - | - | - |
| 1788243603 | 23.89° C | 72% | 1017.2 hPa | 0 mm | - | - | - |
| 1788243303 | 23.89° C | 71% | 1016.9 hPa | 0 mm | - | - | - |
| 1788243003 | 23.89° C | 71% | 1016.8 hPa | 0 mm | - | - | - |
| 1788242703 | 23.89° C | 68% | 1016.9 hPa | 0 mm | - | - | - |
| 1788242403 | 23.89° C | 68% | 1016.7 hPa | 0 mm | - | - | - |
| 1788242103 | 23.89° C | 69% | 1016.5 hPa | 0 mm | - | - | - |
| 1788241803 | 24.44° C | 68% | 1016.5 hPa | 0 mm | - | - | - |
| 1788241503 | 24.44° C | 67% | 1016.5 hPa | 0 mm | - | - | - |
* Rain latest hour (hover to see other rain measurements)
** Current wind speed in m/s (hover to see current wind gust speed)